Weather History for Westhampton Beach, NY

Change the Weather History Date:

Tuesday, February 19, 2013

  Actual Average Record
Temperature  
Mean Temperature 31 °F -  
Max Temperature 46 °F 38 °F 53 °F (1997)
Min Temperature 16 °F 22 °F 5 °F (2003)
Degree Days  
Heating Degree Days 34    
Moisture  
Dew Point 34 °F    
Average Humidity 83    
Maximum Humidity 100    
Minimum Humidity 60    
Precipitation  
Precipitation 0.30 in - - ()
Sea Level Pressure  
Sea Level Pressure 29.87 in    
Wind  
Wind Speed 6 mph (SW)    
Max Wind Speed 15 mph    
Max Gust Speed 25 mph    
Visibility 8 miles    
Events Rain    
Averages and records for this station are not official NWS values.
T = Trace of Precipitation, MM = Missing Value Source: NWS Daily Summary

Daily Weather History Graph

Daily Weather History Graph

Search for Another Location

Airport:

Trip Planner

Search our weather history database for the weather conditions in past years. The results will help you decide how hot, cold, wet, or windy it might be!

Date:

Astronomy

Feb. 19, 2013 Rise Set
Actual Time 6:38 AM EST 5:30 PM EST
Civil Twilight 6:11 AM EST 5:58 PM EST
Nautical Twilight 5:39 AM EST 6:30 PM EST
Astronomical Twilight 5:07 AM EST 7:01 PM EST
Moon 11:58 AM EST (2/19) 2:09 AM EST (2/19)
Length of Visible Light 11h 47m
Length of Day
10h 51m
Waxing Gibbous, 67% of the Moon is Illuminated
Feb 19
Waxing Gibbous
Feb 25
Full
Mar 4
Last Quarter
Mar 11
New
Mar 19
First Quarter

Hourly Weather History & Observations

Time (EST) Temp. Windchill Dew Point Humidity Pressure Visibility Wind Dir Wind Speed Gust Speed Precip Events Conditions
12:53 AM 26.1 °F 21.9 °F 14.0 °F 60% 30.24 in 10.0 mi WSW 3.5 mph - N/A   Clear
1:53 AM 19.0 °F - 10.0 °F 68% 30.21 in 10.0 mi Calm Calm - N/A   Clear
2:53 AM 17.1 °F - 9.0 °F 71% 30.19 in 10.0 mi Calm Calm - N/A   Clear
3:53 AM 17.1 °F - 9.0 °F 71% 30.17 in 10.0 mi Calm Calm - N/A   Clear
4:53 AM 16.0 °F - 9.0 °F 74% 30.17 in 10.0 mi Calm Calm - N/A   Clear
5:53 AM 16.0 °F - 10.0 °F 77% 30.15 in 10.0 mi Calm Calm - N/A   Clear
6:53 AM 18.0 °F 12.7 °F 12.0 °F 78% 30.12 in 10.0 mi SE 3.5 mph - N/A   Clear
7:53 AM 35.1 °F 30.1 °F 28.0 °F 76% 30.12 in 10.0 mi SSW 5.8 mph - N/A   Clear
8:53 AM 44.1 °F 38.6 °F 33.1 °F 65% 30.11 in 10.0 mi SSW 10.4 mph 20.7 mph N/A   Clear
9:53 AM 45.0 °F 38.9 °F 33.1 °F 63% 30.09 in 10.0 mi SSW 12.7 mph 23.0 mph N/A   Clear
10:53 AM 45.0 °F 39.3 °F 34.0 °F 65% 30.06 in 10.0 mi South 11.5 mph 25.3 mph N/A   Clear
11:53 AM 46.0 °F 39.9 °F 34.0 °F 63% 30.03 in 10.0 mi South 13.8 mph 20.7 mph N/A   Mostly Cloudy
1:53 PM 46.0 °F 43.1 °F 36.0 °F 68% 29.95 in 10.0 mi South 5.8 mph - N/A   Scattered Clouds
2:53 PM 45.0 °F 39.3 °F 37.9 °F 76% 29.91 in 8.0 mi SSW 11.5 mph 18.4 mph 0.01 in Rain Light Rain
3:53 PM 43.0 °F 38.8 °F 39.9 °F 89% 29.86 in 5.0 mi SSW 6.9 mph - 0.03 in Rain Light Rain
4:08 PM 42.8 °F 38.6 °F 39.2 °F 87% 29.84 in 6.0 mi South 6.9 mph - 0.01 in Rain Light Rain
4:53 PM 44.1 °F 40.1 °F 41.0 °F 89% 29.80 in 5.0 mi South 6.9 mph - 0.03 in Rain Light Rain
5:06 PM 44.6 °F 40.7 °F 42.8 °F 93% 29.79 in 2.5 mi South 6.9 mph - 0.03 in Rain Rain
5:13 PM 44.6 °F 40.7 °F 42.8 °F 93% 29.79 in 2.5 mi South 6.9 mph - 0.05 in Rain Heavy Rain
5:29 PM 46.4 °F 42.4 °F 42.8 °F 87% 29.78 in 2.5 mi South 8.1 mph - 0.07 in Rain Light Rain
5:37 PM 46.4 °F 42.4 °F 42.8 °F 87% 29.78 in 2.5 mi South 8.1 mph - 0.07 in Rain Light Rain
5:53 PM 46.0 °F 42.5 °F 44.1 °F 93% 29.76 in 2.5 mi South 6.9 mph - 0.09 in Rain Light Rain
6:00 PM 46.4 °F 41.9 °F 44.6 °F 93% 29.76 in 8.0 mi South 9.2 mph - 0.00 in Rain Light Rain
7:24 PM 46.4 °F 40.7 °F 42.8 °F 87% 29.71 in 5.0 mi SSW 12.7 mph 21.9 mph 0.03 in Rain Light Rain
7:53 PM 46.0 °F 39.6 °F 43.0 °F 89% 29.69 in 5.0 mi WSW 15.0 mph 20.7 mph 0.09 in Rain Light Rain
8:53 PM 44.1 °F 38.6 °F 42.1 °F 93% 29.68 in 10.0 mi WSW 10.4 mph - 0.05 in Rain Light Rain
9:21 PM 42.8 °F 38.0 °F 42.8 °F 100% 29.66 in 8.0 mi West 8.1 mph - 0.00 in   Overcast
9:35 PM 42.8 °F 37.5 °F 42.8 °F 100% 29.67 in 9.0 mi WSW 9.2 mph - 0.00 in   Overcast
9:53 PM 43.0 °F 37.2 °F 41.0 °F 93% 29.68 in 10.0 mi WSW 10.4 mph - 0.00 in Rain Light Rain
10:06 PM 44.6 °F 39.2 °F 41.0 °F 87% 29.67 in 10.0 mi West 10.4 mph - 0.00 in   Overcast
10:39 PM 42.8 °F 39.3 °F 41.0 °F 93% 29.66 in 8.0 mi West 5.8 mph - 0.00 in   Overcast
10:49 PM 42.8 °F 39.3 °F 41.0 °F 93% 29.66 in 8.0 mi West 5.8 mph - 0.00 in   Overcast
10:53 PM 42.1 °F 37.7 °F 41.0 °F 96% 29.67 in 7.0 mi West 6.9 mph - 0.00 in   Overcast
11:01 PM 42.8 °F 38.6 °F 41.0 °F 93% 29.67 in 7.0 mi West 6.9 mph - N/A   Overcast
11:46 PM 42.8 °F 35.8 °F 37.4 °F 81% 29.67 in 10.0 mi WNW 13.8 mph - N/A   Mostly Cloudy
11:53 PM 41.0 °F 34.7 °F 36.0 °F 82% 29.68 in 10.0 mi West 10.4 mph - N/A   Scattered Clouds